Regional Weather Roundup
Issued by NWS State College, PA

Home | Current Version | Previous Version | Text Only | Print | Product List | Glossary On
Versions: 1 2 3 4 5 6 7 8 9 10 11 12 13 14 15 16 17 18 19 20 21 22 23 24 25 26 27 28 29 30 31 32 33 34 35 36 37 38 39 40 41 42 43 44 45 46 47 48 49 50
000
ASUS41 KCTP 270303
RWRCTP

REGIONAL WEATHER ROUNDUP
NATIONAL WEATHER SERVICE STATE COLLEGE PA
1100 PM EDT FRI MAY 26 2017

Note: "fair" indicates few or no clouds below 12,000 feet with no
significant weather and/or obstructions to visibility.

* = STATION THAT DOES NOT REPORT PRECIPITATION /E.G. RAIN...SNOW...ETC/
    THUNDER OR FOG.

PAZ002>004-007>009-013>016-020>023-029>032-270400-
WESTERN PENNSYLVANIA

CITY           SKY/WX    TMP DP  RH WIND       PRES   REMARKS
ERIE           CLOUDY    57  52  83 SW5       29.91R
MEADVILLE      MOCLDY    55  52  89 SW3       29.93R
FRANKLIN*      CLOUDY    52  48  87 CALM      29.94S
NEW CASTLE     FAIR      53  51  93 E3        29.93S
BEAVER COUNTY  NOT AVBL
BUTLER*        PTCLDY    54  52  94 CALM      29.93S
PITTSBURGH INT MOCLDY    59  55  87 CALM      29.92S
PITTSBURGH     CLOUDY    62  51  67 CALM      29.93R
INDIANA*       MOCLDY    54  54 100 CALM      29.97R
LATROBE        PTCLDY    57  55  94 CALM      29.95S
WASHINGTON CO* PTCLDY    55  54  94 CALM      29.95F
$$

PAZ004>006-010>012-017>019-024>028-033>037-041-042-045-046-049>053-270400-
CENTRAL PENNSYLVANIA

CITY           SKY/WX    TMP DP  RH WIND       PRES   REMARKS
BRADFORD       CLOUDY    53  52  96 W6        29.92S
DUBOIS         CLOUDY    54  50  86 W3        29.93R
CLEARFIELD     CLOUDY    57  53  86 NW6       29.94R
JOHNSTOWN      CLOUDY    56  52  86 NW9       29.94R
ALTOONA        MOCLDY    58  51  78 NW3       29.94R
STATE COLLEGE  CLOUDY    58  51  77 W7        29.92S
WILLIAMSPORT   CLEAR     60  52  74 W6        29.87R
SELINSGROVE    CLEAR     58  52  80 CALM      29.89R
FT INDIANTOWN  CLEAR     63  51  66 W8        29.87R
CAPITAL CITY   LGT RAIN  65  50  58 W10       29.88R
HARRISBURG     PTCLDY    64  53  67 NW10      29.87R
YORK           CLEAR     59  54  83 W6        29.89R
$$

PAZ038>040-043-044-047-048-054-055-060>062-067>071-270400-
EASTERN PENNSYLVANIA

CITY           SKY/WX    TMP DP  RH WIND       PRES   REMARKS
SCRANTON       CLOUDY    61  55  81 W6        29.86R
MOUNT POCONO   CLOUDY    55  54  96 NW8       29.85S
ALLENTOWN      CLOUDY    63  55  75 W9        29.85R
QUAKERTOWN*    CLOUDY    61  57  88 NW8       29.88R
READING        MOCLDY    63  54  72 W6        29.86R
LANCASTER      CLEAR     63  53  70 NW6       29.87R
COATESVILLE    CLEAR     61  52  72 NW12      29.89R
POTTSTOWN      MOCLDY    62  55  77 NW9       29.88R
BLUE BELL      PTCLDY    63  54  72 NW3       29.87R
DOYLESTOWN     MOCLDY    62  56  80 NW10G18   29.84R
WILLOW GROVE   NOT AVBL
NORTH PHILA    MOCLDY    67  55  65 NW9       29.85R
PHILADELPHIA   MOCLDY    69  53  56 NW10      29.84R
$$



USA.gov is the U.S. government's official web portal to all federal, state and local government web resources and services.